CW9352 Weather Reports


Display with metric or nautical units.
time (UTC)temp
F
wind
direction
speed
MPH
gust
MPH
rain 1hr
in
rain 24hr
in
rain mn
in
humidity
%
barometer
mb
20260906223516 88 272 2.0 7.0 0.00 0.34 0.34 78 1011.5
20260906222517 89 282 1.0 8.0 0.00 0.34 0.34 78 1011.6
20260906221518 89 278 2.0 7.0 0.00 0.34 0.34 76 1011.6
20260906220518 89 276 3.0 9.0 0.00 0.34 0.34 76 1011.6
20260906215518 89 278 2.0 9.0 0.00 0.34 0.34 76 1011.6
20260906214518 89 277 2.0 10.0 0.00 0.34 0.34 76 1011.6
20260906213518 89 273 3.0 6.0 0.00 0.34 0.34 76 1011.7
20260906212518 89 271 3.0 8.0 0.00 0.34 0.34 76 1011.5
20260906211518 89 275 2.0 7.0 0.00 0.34 0.34 75 1011.7
20260906210518 90 276 2.0 8.0 0.00 0.34 0.34 75 1011.7
20260906205518 90 269 2.0 7.0 0.00 0.34 0.34 75 1011.7
20260906204558 90 271 2.0 7.0 0.00 0.34 0.34 76 1011.8
20260906203518 90 274 3.0 9.0 0.00 0.34 0.34 75 1012.0
20260906202558 91 264 2.0 5.0 0.00 0.34 0.34 75 1012.2
20260906202019 90 272 2.0 7.0 0.00 0.34 0.34 77 1012.3
20260906201018 90 277 2.0 7.0 0.00 0.34 0.34 77 1012.4
20260906200058 91 280 2.0 6.0 0.00 0.34 0.34 77 1012.6
20260906195056 90 266 2.0 8.0 0.00 0.34 0.34 77 1012.7
20260906194058 90 279 2.0 9.0 0.00 0.34 0.34 77 1013.0
20260906193058 90 266 2.0 8.0 0.00 0.34 0.34 78 1013.1
20260906192016 90 273 2.0 8.0 0.00 0.34 0.34 77 1013.2
20260906191018 90 264 2.0 8.0 0.00 0.34 0.34 76 1013.2
20260906190018 90 264 2.0 5.0 0.00 0.34 0.34 78 1013.4
20260906185018 89 252 2.0 8.0 0.00 0.34 0.34 78 1013.6
20260906184018 89 280 2.0 10.0 0.00 0.34 0.34 77 1013.6
20260906183016 90 268 2.0 6.0 0.00 0.34 0.34 75 1013.8
20260906182018 92 270 1.0 4.0 0.00 0.34 0.34 75 1013.9
20260906181058 91 245 0.0 4.0 0.00 0.34 0.34 74 1014.0
20260906180017 91 254 1.0 8.0 0.00 0.34 0.34 74 1014.2
20260906175018 91 272 1.0 4.0 0.00 0.34 0.34 74 1014.3
20260906174018 92 245 0.0 2.0 0.00 0.34 0.34 74 1014.4
20260906173018 91 281 0.0 5.0 0.00 0.34 0.34 75 1014.5
20260906172018 91 166 0.0 2.0 0.00 0.34 0.34 75 1014.5
20260906171556 91 134 0.0 3.0 0.00 0.34 0.34 74 1014.6
20260906170518 91 197 0.0 1.0 0.00 0.34 0.34 76 1014.6
20260906165518 92 234 0.0 2.0 0.00 0.34 0.34 74 1014.7
20260906164516 91 251 0.0 3.0 0.00 0.34 0.34 75 1014.7
20260906163518 91 195 1.0 3.0 0.00 0.34 0.34 77 1014.8
20260906162518 90 204 0.0 3.0 0.00 0.34 0.34 77 1014.8
20260906161518 90 0.0 2.0 0.00 0.34 0.34 77 1014.8
20260906160518 90 240 0.0 2.0 0.00 0.34 0.34 78 1014.7
20260906155518 89 278 0.0 4.0 0.00 0.34 0.34 80 1014.7
20260906154518 89 264 0.0 3.0 0.00 0.34 0.34 80 1014.8
20260906154058 89 240 0.0 4.0 0.00 0.34 0.34 80 1014.8
20260906153017 88 223 1.0 3.0 0.00 0.34 0.34 83 1015.0
20260906152017 87 238 0.0 4.0 0.00 0.34 0.34 82 1015.0
20260906151017 88 272 0.0 3.0 0.00 0.34 0.34 72 1014.9
20260906150018 90 0.0 0.0 0.00 0.34 0.34 78 1014.8
20260906145017 89 0.0 1.0 0.00 0.34 0.34 79 1014.8
20260906144017 88 53 0.0 1.0 0.00 0.34 0.34 83 1014.7
20260906143018 86 76 0.0 4.0 0.00 0.34 0.34 86 1014.7
20260906142017 86 71 0.0 3.0 0.00 0.34 0.34 88 1014.7
20260906141018 84 62 0.0 3.0 0.00 0.34 0.34 93 1015.0
20260906140015 83 0.0 0.0 0.00 0.34 0.34 97 1015.0
20260906135018 81 0.0 0.0 0.00 0.34 0.34 99 1015.1
20260906134017 79 0.0 0.0 0.00 0.34 0.34 98 1015.1
20260906133018 79 0.0 0.0 0.01 0.34 0.34 98 1015.0
20260906132017 78 0.0 0.0 0.01 0.34 0.34 98 1015.1
20260906131016 78 0.0 0.0 0.01 0.34 0.34 98 1014.8
20260906130018 78 0.0 0.0 0.03 0.34 0.34 98 1014.6
20260906125017 78 0.0 1.0 0.10 0.34 0.34 98 1014.7
20260906124016 77 0.0 0.0 0.27 0.34 0.34 98 1014.6
20260906123017 77 0.0 0.0 0.27 0.33 0.33 98 1014.6
20260906122057 77 0.0 0.0 0.27 0.33 0.33 98 1014.7
20260906121518 77 285 0.0 7.0 0.27 0.33 0.33 98 1014.7
20260906120516 77 280 0.0 1.0 0.26 0.32 0.32 97 1014.7
20260906115517 77 279 0.0 9.0 0.23 0.29 0.29 97 1014.5
20260906114516 78 274 2.0 9.0 0.07 0.13 0.13 97 1014.4
20260906113517 78 278 1.0 6.0 0.00 0.06 0.06 98 1014.3
20260906112516 78 0.0 0.0 0.00 0.06 0.06 98 1013.9
20260906111517 78 0.0 0.0 0.00 0.06 0.06 98 1013.8
20260906110517 78 0.0 1.0 0.00 0.06 0.06 98 1013.7
20260906105517 78 0.0 0.0 0.01 0.06 0.06 98 1013.6
20260906104557 78 0.0 0.0 0.05 0.06 0.06 98 1013.6
20260906103555 78 0.0 0.0 0.06 0.06 0.06 97 1013.6
20260906102517 78 0.0 0.0 0.06 0.06 0.06 97 1013.4
20260906101557 78 0.0 0.0 0.06 0.06 0.06 97 1013.4
20260906100516 78 0.0 0.0 0.06 0.06 0.06 97 1013.5
20260906095517 78 0.0 2.0 0.05 0.05 0.05 97 1013.4
20260906094517 78 276 0.0 1.0 0.01 0.01 0.01 98 1013.5
20260906093517 78 0.0 0.0 0.00 0.00 0.00 97 1013.4
20260906092537 78 0.0 0.0 0.00 0.00 0.00 97 1013.3
20260906091517 78 0.0 0.0 0.00 0.00 0.00 97 1013.2
20260906090519 78 0.0 0.0 0.00 0.00 0.00 97 1013.0
20260906085539 78 0.0 0.0 0.00 0.00 0.00 97 1012.9
20260906084517 78 0.0 0.0 0.00 0.00 0.00 97 1012.9
20260906083517 78 0.0 0.0 0.00 0.00 0.00 97 1013.0
20260906082537 78 0.0 0.0 0.00 0.00 0.00 97 1013.0
20260906081559 78 0.0 0.0 0.00 0.00 0.00 97 1012.9
20260906080557 78 0.0 0.0 0.00 0.00 0.00 97 1012.9
20260906075517 78 0.0 0.0 0.00 0.00 0.00 97 1012.9
20260906074537 78 0.0 0.0 0.00 0.00 0.00 97 1013.0
20260906073517 78 0.0 0.0 0.00 0.00 0.00 97 1012.9
20260906072516 77 0.0 0.0 0.00 0.00 0.00 96 1012.8
20260906071517 77 0.0 0.0 0.00 0.00 0.00 96 1012.9
20260906070517 77 0.0 0.0 0.00 0.00 0.00 96 1013.0
20260906065517 77 0.0 0.0 0.00 0.00 0.00 96 1012.9
20260906064537 77 0.0 0.0 0.00 0.00 0.00 96 1013.0
20260906063517 77 0.0 0.0 0.00 0.00 0.00 95 1012.9
20260906062517 78 0.0 0.0 0.00 0.00 0.00 95 1013.0
20260906061517 78 0.0 0.0 0.00 0.00 0.00 95 1013.2
20260906060517 78 0.0 0.0 0.00 0.00 0.00 95 1013.2
20260906055517 78 0.0 0.0 0.00 0.00 0.00 95 1013.4
20260906054517 78 0.0 0.0 0.00 0.00 0.00 95 1013.6
20260906053537 78 0.0 0.0 0.00 0.00 0.00 94 1013.6
20260906052537 78 0.0 0.0 0.00 0.00 0.00 94 1013.7
20260906051517 78 0.0 0.0 0.00 0.00 0.00 94 1013.7
20260906050517 79 0.0 0.0 0.00 0.00 0.00 93 1013.7
20260906045517 79 0.0 0.0 0.00 0.00 0.00 93 1013.7
20260906044518 79 0.0 0.0 0.00 0.00 0.00 92 1013.8
20260906043517 79 0.0 0.0 0.00 0.00 0.00 92 1014.0
20260906042516 79 0.0 0.0 0.00 0.00 0.00 92 1014.0
20260906041516 80 0.0 0.0 0.00 0.00 0.00 91 1014.0
20260906040517 80 0.0 0.0 0.00 0.00 0.00 91 1014.0
20260906035539 80 0.0 0.0 0.00 0.00 0.00 91 1014.2
20260906034517 81 0.0 0.0 0.00 0.00 0.00 90 1014.1
20260906033517 81 0.0 0.0 0.00 0.00 0.00 89 1014.2
20260906032518 81 0.0 0.0 0.00 0.00 0.00 88 1014.2
20260906031517 82 0.0 0.0 0.00 0.00 0.00 87 1014.1
20260906030517 82 0.0 0.0 0.00 0.00 0.00 86 1014.0
20260906025517 83 0.0 0.0 0.00 0.00 0.00 85 1013.9
20260906024517 83 0.0 0.0 0.00 0.00 0.00 84 1013.9
20260906023517 84 0.0 0.0 0.00 0.00 0.00 83 1013.8
20260906022517 84 280 0.0 1.0 0.00 0.00 0.00 83 1013.4
20260906021517 84 283 0.0 2.0 0.00 0.00 0.00 83 1013.3
20260906020516 84 280 1.0 4.0 0.00 0.00 0.00 82 1013.5
20260906015517 84 276 1.0 4.0 0.00 0.00 0.00 82 1013.5
20260906014517 84 281 1.0 3.0 0.00 0.00 0.00 81 1013.5
20260906013518 84 276 0.0 5.0 0.00 0.00 0.00 81 1013.3
20260906012517 85 286 1.0 4.0 0.00 0.00 0.00 81 1013.1
20260906011516 85 280 0.0 3.0 0.00 0.00 0.00 81 1013.2
20260906010516 85 275 1.0 5.0 0.00 0.00 0.00 81 1013.2
20260906005516 85 279 1.0 7.0 0.00 0.00 0.00 81 1013.2
20260906004516 85 282 1.0 5.0 0.00 0.00 0.00 80 1013.3
20260906003516 85 282 1.0 4.0 0.00 0.00 0.00 81 1013.2
20260906002517 85 280 1.0 3.0 0.00 0.00 0.00 81 1013.2
20260906001516 85 275 0.0 2.0 0.00 0.00 0.00 80 1013.2
20260906000516 85 288 0.0 5.0 0.00 0.00 0.00 80 1013.2
20260905235537 86 282 1.0 5.0 0.00 0.00 0.00 79 1013.2
20260905234517 86 284 0.0 5.0 0.00 0.00 0.00 78 1013.1
20260905233516 86 279 1.0 4.0 0.00 0.00 0.00 78 1013.0
20260905232516 86 281 1.0 5.0 0.00 0.00 0.00 77 1013.2
20260905231516 87 274 0.0 4.0 0.00 0.00 0.00 76 1013.0
20260905230556 87 285 1.0 4.0 0.00 0.00 0.00 76 1013.1
20260905225516 88 270 1.0 6.0 0.00 0.00 0.00 75 1013.2
20260905224516 88 285 1.0 5.0 0.00 0.00 0.00 74 1013.3